EW5919 Weather Reports


Display with metric or nautical units.
time (UTC)temp
F
wind
direction
speed
MPH
gust
MPH
rain 1hr
in
rain 24hr
in
rain mn
in
humidity
%
barometer
mb
20260506111513 65 182 0.0 0.0 0.00 0.00 0.00 89 1012.3
20260506110012 65 176 0.0 0.0 0.00 0.00 0.00 88 1012.2
20260506104511 65 194 0.0 0.0 0.00 0.00 0.00 87 1012.1
20260506103013 65 163 0.0 3.0 0.00 0.00 0.00 87 1011.8
20260506101510 65 170 0.0 0.0 0.00 0.00 0.00 87 1011.5
20260506100011 65 195 0.0 0.0 0.00 0.00 0.00 86 1011.3
20260506094509 65 178 0.0 1.0 0.00 0.00 0.00 86 1011.2
20260506093007 65 196 0.0 0.0 0.00 0.00 0.00 86 1011.3
20260506091507 65 199 0.0 1.0 0.00 0.00 0.00 85 1011.2
20260506090006 65 184 0.0 0.0 0.00 0.00 0.00 84 1011.1
20260506084505 65 180 0.0 2.0 0.00 0.00 0.00 84 1010.9
20260506083004 65 181 0.0 4.0 0.00 0.00 0.00 83 1011.0
20260506081502 65 174 0.0 1.0 0.00 0.00 0.00 82 1011.1
20260506073059 65 156 0.0 1.0 0.00 0.00 0.00 80 1011.4
20260506071604 65 170 0.0 2.0 0.00 0.00 0.00 79 1011.4
20260506061553 67 221 0.0 2.0 0.00 0.00 0.00 74 1012.1
20260506044523 64 125 0.0 0.0 0.00 0.00 0.00 68 1011.7
20260506043019 65 165 0.0 0.0 0.00 0.00 0.00 67 1012.1
20260506041518 65 166 0.0 0.0 0.00 0.00 0.00 67 1012.0
20260506040021 65 167 0.0 0.0 0.00 0.00 0.00 65 1011.8
20260506034520 65 165 0.0 0.0 0.00 0.00 0.00 64 1011.7
20260506033014 65 132 0.0 0.0 0.00 0.00 0.00 64 1012.1
20260506031514 65 132 0.0 0.0 0.00 0.00 0.00 62 1012.1
20260506030026 65 170 0.0 0.0 0.00 0.00 0.00 63 1011.9
20260506024525 65 183 0.0 1.0 0.00 0.00 0.00 63 1012.1
20260506023013 66 183 0.0 0.0 0.00 0.00 0.00 62 1012.1
20260506021511 66 183 0.0 0.0 0.00 0.00 0.00 60 1012.1
20260506020011 67 183 0.0 0.0 0.00 0.00 0.00 59 1011.8
20260506014509 67 183 0.0 0.0 0.00 0.00 0.00 57 1011.7
20260506013013 68 183 0.0 0.0 0.00 0.00 0.00 55 1011.9
20260506011510 70 183 0.0 0.0 0.00 0.00 0.00 55 1011.6
20260506010011 71 183 0.0 0.0 0.00 0.00 0.00 51 1011.6
20260506003008 73 183 0.0 1.0 0.00 0.00 0.00 46 1011.9
20260506001507 74 183 0.0 2.0 0.00 0.00 0.00 44 1011.9
20260506000007 75 194 0.0 2.0 0.00 0.00 0.00 43 1012.0
20260505234506 76 191 0.0 0.0 0.00 0.00 0.00 42 1011.8
20260505233006 77 191 0.0 0.0 0.00 0.00 0.00 40 1011.9
20260505231505 78 162 0.0 4.0 0.00 0.00 0.00 39 1012.0
20260505230011 78 192 0.0 3.0 0.00 0.00 0.00 38 1011.7
20260505224504 80 162 0.0 6.0 0.00 0.00 0.00 37 1011.5
20260505223002 80 192 0.0 2.0 0.00 0.00 0.00 38 1011.4
20260505221502 80 148 0.0 3.0 0.00 0.00 0.00 37 1011.4
20260505220004 81 190 0.0 3.0 0.00 0.00 0.00 36 1011.3
20260505214600 81 205 0.0 4.0 0.00 0.00 0.00 37 1011.4
20260505214503 81 162 0.0 4.0 0.00 0.00 0.00 36 1011.3
20260505213102 81 186 0.0 6.0 0.00 0.00 0.00 36 1011.4
20260505211558 82 153 0.0 7.0 0.00 0.00 0.00 36 1011.4
20260505210056 81 167 0.0 3.0 0.00 0.00 0.00 36 1011.5
20260505204601 81 207 0.0 4.0 0.00 0.00 0.00 36 1011.7
20260505203100 81 186 0.0 4.0 0.00 0.00 0.00 36 1012.0
20260505201548 81 126 0.0 6.0 0.00 0.00 0.00 36 1012.2
20260505200049 81 161 0.0 3.0 0.00 0.00 0.00 35 1012.4
20260505194555 81 126 1.0 5.0 0.00 0.00 0.00 35 1012.5
20260505193041 80 124 0.0 3.0 0.00 0.00 0.00 38 1012.6
20260505191540 80 153 0.0 4.0 0.00 0.00 0.00 37 1012.9
20260505190041 80 188 0.0 5.0 0.00 0.00 0.00 40 1012.8
20260505184534 79 161 0.0 3.0 0.00 0.00 0.00 40 1013.1
20260505181531 79 187 0.0 6.0 0.00 0.00 0.00 39 1013.5
20260505180029 78 174 0.0 4.0 0.00 0.00 0.00 39 1013.8
20260505174527 77 190 0.0 8.0 0.00 0.00 0.00 42 1014.1
20260505173038 78 165 0.0 4.0 0.00 0.00 0.00 44 1014.4
20260505171525 77 175 0.0 6.0 0.00 0.00 0.00 43 1014.4
20260505170026 77 173 1.0 3.0 0.00 0.00 0.00 42 1014.4
20260505164542 76 163 0.0 4.0 0.00 0.00 0.00 47 1014.5
20260505163018 76 158 0.0 5.0 0.00 0.00 0.00 47 1014.5
20260505161517 76 180 0.0 8.0 0.00 0.00 0.00 47 1014.4
20260505153011 73 172 0.0 11.0 0.00 0.00 0.00 52 1014.9
20260505151504 72 157 0.0 3.0 0.00 0.00 0.00 55 1015.0
20260505124529 50 223 0.0 0.0 0.00 0.00 0.00 96 1014.0
20260505123026 48 223 0.0 0.0 0.00 0.00 0.00 95 1013.9
20260505121525 48 223 0.0 0.0 0.00 0.00 0.00 95 1013.8
20260505120025 47 223 0.0 0.0 0.00 0.00 0.00 95 1013.8
20260505114532 47 223 0.0 0.0 0.00 0.00 0.00 94 1013.6
20260505113023 46 171 0.0 0.0 0.00 0.00 0.00 94 1013.3